Regional Weather Roundup
Issued by NWS Nashville, TN

Home | Current Version | Previous Version | Text Only | Print | Product List | Glossary On
Versions: 1 2 3 4 5 6 7 8 9 10 11 12 13 14 15 16 17 18 19 20 21 22 23 24 25 26 27 28 29 30 31 32 33 34 35 36 37 38 39 40 41 42 43 44 45 46 47 48 49 50
000
ASUS44 KOHX 081910
RWROHX
MIDDLE TENNESSEE HOURLY WEATHER ROUNDUP
NATIONAL WEATHER SERVICE NASHVILLE TN
100 PM CST MON FEB 08 2016

NOTE: "FAIR" INDICATES FEW OR NO CLOUDS BELOW 12,000 FEET WITH
NO SIGNIFICANT WEATHER AND/OR OBSTRUCTIONS TO VISIBILITY.

* THESE REPORTS ARE NOT UNDER NWS QUALITY CONTROL AND MAY NOT
  REPORT WEATHER SUCH AS PRECIPITATION AND FOG.


TNZ005>011-023>034-057-059-062>066-078-080-082000
...NORTHERN MIDDLE TENNESSEE...

CITY           SKY/WX    TMP DP  RH WIND       PRES   REMARKS
CLARKSVILLE    CLOUDY    39  24  55 W14G26    29.78F WCI  31
CROSSVILLE     CLOUDY    39  23  52 W15G23    29.69F WCI  31
DICKSON        CLOUDY    37  25  60 W14       29.78F WCI  29
LEBANON        CLOUDY    37  28  70 W6        29.76F WCI  32
LIVINGSTON     PTSUNNY   38  29  70 W16       29.71F WCI  29
NASHVILLE      CLOUDY    41  24  51 W7        29.78F
PORTLAND       CLOUDY   N/A N/A N/A W14       29.74F
ROCKWOOD       MOSUNNY   41  22  47 W12       29.68F
SMYRNA         CLOUDY    41  26  55 W10       29.80F
SPARTA         CLOUDY    41  25  52 W13       29.72F
$$
TNZ056-058-060-061-075>077-079-093>097-082000
...SOUTHERN MIDDLE TENNESSEE...

CITY           SKY/WX    TMP DP  RH WIND       PRES   REMARKS
COLUMBIA       PTSUNNY   41  27  56 W9        29.79F
FAYETTEVILLE   PTSUNNY   43  23  45 W12G20    29.80F
LEWISBURG      CLOUDY    41  23  48 W9        29.80F
MCMINNVILLE    CLOUDY    39  25  56 W15       29.76S WCI  31
SHELBYVILLE    CLOUDY    43  25  49 W13       29.80F
TULLAHOMA      PTSUNNY   39  19  45 W12       29.78F WCI  32
WINCHESTER     CLOUDY    41  23  48 W12       29.79F
$$


...KEY TO REMARKS...
VSB - VISIBILITY IN MILES
WCI - WIND CHILL INDEX
HX  - HEAT INDEX




USA.gov is the U.S. government's official web portal to all federal, state and local government web resources and services.